User: anonymous   Login
Location: Unspecified
(0.0000°N, 0.0000°E)
Time: 11:51:16
(UTC+00:00)
Language:

OBJECT M - Orbit

View from above orbital plane
View from above orbital plane
View from above satellite
View from above satellite

Ground track
Ground track

The orbit data is extracted from the following two-line orbital elements,

1 42836U 17042M   18348.22501371  .00000035  00000-0  89268-5 0  9998
2 42836  97.5820 243.8070 0012541 328.9986  31.0491 14.91119710 77172
Epoch (UTC): 14 December 2018 05:24:01
Eccentricity: 0.0012541
inclination: 97.5820°
perigee height: 586 km
apogee height: 603 km
right ascension of ascending node: 243.8070°
argument of perigee: 328.9986°
revolutions per day: 14.91119710
mean anomaly at epoch: 31.0491°
orbit number at epoch: 7717

The dashed part of the orbit path shows where the satellite is in the earth's shadow,  

DLR